Sugarloaf Regional (B21)
Carrabassett, ME
Field Elevation: 885
Lat: 45°05.12N  Long: 70°12.98W
CTAF/Unicom Freq: 122.8000
   
    
Weather Advisories
11/1/2014 11:33 Z
Altimeter 30.05" Hg
Wind 320° @ 0 KT
Gusts --
Visibility 7 SM
Temperature 3° C (37° F)
Dewpoint 2° C (36° F)
Relative Humidity 90%
Density Altitude --
Condensation Altitude 1,700 feet
  Wind and Runways
Indicated Runway = 35
History
 
 
More Info
All DigiWx sites map
 
NOAA Forecast
 
Airport IQ 5010
(39N) Princeton, NJ
(PN44) Upper Gwynedd Heliport
 
about DigiWx
 
FAA Disclaimer: The data displayed is for advisory purposes only and is not to be used for flight planning or operations. For official data, please call (not available) to hear the current automated AWOS voice message.
  METAR B21 011133Z AUTO 32000KT 7SM 03/02 A3005